STARLINK-2262

Last updated on Sat Apr 24 2021 00:02:02 GMT+0000 (Coordinated Universal Time)

1 48001U 21024AA 21113.25001157 .00078305 00000-0 55747-3 0 9995 2 48001 53.0487 55.6855 0000990 76.0515 83.1390 15.73182784 1863

Satellite not in orbit